sat.trackr.live / text

‹ back to catalog

CENTISPACE-1 GROUP 05 O*

NORAD 69588 · 2026-138G

PAYLOAD ACTIVE UNKNOWN

§ Identity

Operator
Country
PRC
Launch date
2026-06-17
Launch site
JSC
Launch vehicle
Mass (kg)
RCS (m²)

External: N2YO · Heavens-Above · Gunter

§ Orbital elements

Epoch: 2026-09-18T18:21:34.249536Z

Period
102.42 min
Inclination
55.1394°
Eccentricity
0.0006752
Mean motion
14.06035338 rev/d
Perigee alt
868.1 km
Apogee alt
877.9 km
Semi-major
7,251.1 km
B*
9.9060e-5
RAAN
296.1445°
Arg perigee
256.5354°
Mean anomaly
103.4863°
Rev number
1,326

§ Raw data

CENTISPACE-1 GROUP 05 O*1 69588U 26138G   26261.76497974  .00000014  00000+0  99060-4 0  99982 69588  55.1394 296.1445 0006752 256.5354 103.4863 14.06035338 13266

JSON: /api/v1/satellites/69588 · /tle

For live sub-satellite position, see the globe view (requires WebGL).

§ Visibility from observer

Set your observer location to see the next 7 days of passes ≥ 10°. The values pass through the URL so the page stays shareable.

No JS? Fill the form by hand. The geolocation button needs JavaScript.

§ Radio — SatNOGS DB

ModeDescriptionDownlinkUplink
UNKNOWN S-band telemetry 2.242 GHz

1 transmitter · refreshed weekly from db.satnogs.org